Time,TemperatureF,DewpointF,PressureIn,WindDirection,WindDirectionDegrees,WindSpeedMPH,WindSpeedGustMPH,Humidity,HourlyPrecipIn,Conditions,Clouds,dailyrainin,SoftwareType,DateUTC
2013-06-25 00:01:00,68.0,65.9,30.00,SW,220,0.0,0.0,93,0.00,RA,,0.00,WeatherDisplay:10.37,2013-06-25 04:01:00,
2013-06-25 00:02:00,68.0,65.9,30.00,SW,220,0.0,0.0,93,0.00,RA,,0.00,WeatherDisplay:10.37,2013-06-25 04:02:00,
2013-06-25 00:06:00,68.0,65.9,30.00,SW,220,0.0,0.0,93,0.00,RA,,0.00,WeatherDisplay:10.37,2013-06-25 04:06:00,
2013-06-25 00:11:00,68.2,66.1,30.00,SW,220,0.0,0.0,93,0.00,BKN,,0.00,WeatherDisplay:10.37,2013-06-25 04:11:00,
2013-06-25 00:16:00,68.0,65.9,30.00,SW,220,0.0,0.0,93,0.00,BKN,,0.00,WeatherDisplay:10.37,2013-06-25 04:16:00,
2013-06-25 00:21:00,68.0,65.9,30.00,SW,220,0.0,0.0,93,0.00,BKN,,0.00,WeatherDisplay:10.37,2013-06-25 04:21:00,
2013-06-25 00:26:00,68.2,66.1,30.00,SW,220,0.0,0.0,93,0.00,BKN,,0.00,WeatherDisplay:10.37,2013-06-25 04:26:00,
2013-06-25 00:31:00,67.8,65.7,30.00,SW,220,0.0,0.0,93,0.00,BKN,,0.00,WeatherDisplay:10.37,2013-06-25 04:31:00,
2013-06-25 00:36:00,67.8,65.7,29.98,SW,220,0.0,0.0,93,0.00,BKN,,0.00,WeatherDisplay:10.37,2013-06-25 04:36:00,
2013-06-25 00:41:00,67.8,65.7,29.98,SW,220,0.0,0.0,93,0.00,BKN,,0.00,WeatherDisplay:10.37,2013-06-25 04:41:00,
2013-06-25 00:46:00,68.0,65.9,29.98,SW,220,0.0,0.0,93,0.00,BKN,,0.00,WeatherDisplay:10.37,2013-06-25 04:46:00,
2013-06-25 00:51:00,67.8,65.7,29.98,SW,220,0.0,0.0,93,0.00,BKN,,0.00,WeatherDisplay:10.37,2013-06-25 04:51:00,
2013-06-25 00:56:00,67.8,65.7,29.98,SW,220,0.0,0.0,93,0.00,BKN,,0.00,WeatherDisplay:10.37,2013-06-25 04:56:00,
2013-06-25 01:01:00,68.0,65.9,29.98,SW,220,0.0,0.0,93,0.00,BKN,,0.00,WeatherDisplay:10.37,2013-06-25 05:01:00,
2013-06-25 01:06:00,68.0,65.9,29.98,SW,220,0.0,0.0,93,0.00,BKN,,0.00,WeatherDisplay:10.37,2013-06-25 05:06:00,
2013-06-25 01:11:00,68.0,65.9,29.98,SW,220,0.0,0.0,93,0.00,BKN,,0.00,WeatherDisplay:10.37,2013-06-25 05:11:00,
2013-06-25 01:16:00,68.0,65.9,29.98,SW,220,0.0,0.0,93,0.00,BKN,,0.00,WeatherDisplay:10.37,2013-06-25 05:16:00,
2013-06-25 01:21:00,67.8,65.7,29.98,SW,220,0.0,0.0,93,0.00,BKN,,0.00,WeatherDisplay:10.37,2013-06-25 05:21:00,
2013-06-25 01:26:00,67.8,65.7,29.98,SW,220,0.0,0.0,93,0.00,BKN,,0.00,WeatherDisplay:10.37,2013-06-25 05:26:00,
2013-06-25 01:31:00,67.8,65.7,29.98,SW,220,0.0,0.0,93,0.00,BKN,,0.00,WeatherDisplay:10.37,2013-06-25 05:31:00,
2013-06-25 01:36:00,67.8,65.7,29.98,SW,220,0.0,0.0,93,0.00,BKN,,0.00,WeatherDisplay:10.37,2013-06-25 05:36:00,
2013-06-25 01:41:00,67.6,65.5,29.98,SW,220,0.0,0.0,93,0.00,BKN,,0.00,WeatherDisplay:10.37,2013-06-25 05:41:00,
2013-06-25 01:46:00,67.6,65.5,29.98,SW,220,0.0,0.0,93,0.00,BKN,,0.00,WeatherDisplay:10.37,2013-06-25 05:46:00,
2013-06-25 01:51:00,67.6,65.5,29.98,SW,220,0.0,0.0,93,0.00,BKN,,0.00,WeatherDisplay:10.37,2013-06-25 05:51:00,
2013-06-25 01:56:00,67.6,65.5,29.98,SW,220,0.0,0.0,93,0.00,BKN,,0.00,WeatherDisplay:10.37,2013-06-25 05:56:00,
2013-06-25 02:01:00,67.6,65.5,29.98,SW,220,0.0,0.0,93,0.00,BKN,,0.00,WeatherDisplay:10.37,2013-06-25 06:01:00,
2013-06-25 02:06:00,67.6,65.5,29.98,SW,220,0.0,0.0,93,0.00,BKN,,0.00,WeatherDisplay:10.37,2013-06-25 06:06:00,
2013-06-25 02:11:00,67.6,65.5,29.98,SW,220,0.0,0.0,93,0.00,BKN,,0.00,WeatherDisplay:10.37,2013-06-25 06:11:00,
2013-06-25 02:16:00,67.6,64.3,29.98,SW,220,0.0,0.0,89,0.00,OVC,,0.00,WeatherDisplay:10.37,2013-06-25 06:16:00,
2013-06-25 02:21:00,67.6,64.3,29.98,SW,220,0.0,0.0,89,0.00,OVC,,0.00,WeatherDisplay:10.37,2013-06-25 06:21:00,
2013-06-25 02:26:00,67.6,64.3,29.98,SW,220,0.0,0.0,89,0.00,OVC,,0.00,WeatherDisplay:10.37,2013-06-25 06:26:00,
2013-06-25 02:31:00,67.6,64.3,29.98,SW,220,0.0,0.0,89,0.00,OVC,,0.00,WeatherDisplay:10.37,2013-06-25 06:31:00,
2013-06-25 02:36:00,67.6,64.3,29.98,SW,220,0.0,0.0,89,0.00,OVC,,0.00,WeatherDisplay:10.37,2013-06-25 06:36:00,
2013-06-25 02:41:00,67.6,64.3,29.98,SW,220,0.0,0.0,89,0.00,OVC,,0.00,WeatherDisplay:10.37,2013-06-25 06:41:00,
2013-06-25 02:46:00,67.5,64.1,29.98,SW,220,0.0,0.0,89,0.00,OVC,,0.00,WeatherDisplay:10.37,2013-06-25 06:46:00,
2013-06-25 02:51:00,67.5,64.1,29.95,SW,220,0.0,0.0,89,0.00,OVC,,0.00,WeatherDisplay:10.37,2013-06-25 06:51:00,
2013-06-25 02:56:00,67.5,64.1,29.95,SW,220,0.0,0.0,89,0.00,OVC,,0.00,WeatherDisplay:10.37,2013-06-25 06:56:00,
2013-06-25 03:01:00,67.3,65.2,29.95,SW,220,0.0,0.0,93,0.00,SCT,,0.00,WeatherDisplay:10.37,2013-06-25 07:01:00,
2013-06-25 03:06:00,67.3,65.2,29.95,SW,220,0.0,0.0,93,0.00,SCT,,0.00,WeatherDisplay:10.37,2013-06-25 07:06:00,
2013-06-25 03:11:00,67.3,65.2,29.95,SW,220,0.0,0.0,93,0.00,SCT,,0.00,WeatherDisplay:10.37,2013-06-25 07:11:00,
2013-06-25 03:16:00,67.1,65.0,29.95,SW,220,0.0,0.0,93,0.00,SCT,,0.00,WeatherDisplay:10.37,2013-06-25 07:16:00,
2013-06-25 03:21:00,66.9,64.8,29.95,SW,220,0.0,0.0,93,0.00,SCT,,0.00,WeatherDisplay:10.37,2013-06-25 07:21:00,
2013-06-25 03:26:00,66.9,64.8,29.95,SW,220,0.0,0.0,93,0.00,SCT,,0.00,WeatherDisplay:10.37,2013-06-25 07:26:00,
2013-06-25 03:31:00,66.7,64.7,29.95,SW,220,0.0,0.0,93,0.00,SCT,,0.00,WeatherDisplay:10.37,2013-06-25 07:31:00,
2013-06-25 03:36:00,66.7,64.7,29.95,SW,220,0.0,0.0,93,0.00,SCT,,0.00,WeatherDisplay:10.37,2013-06-25 07:36:00,
2013-06-25 03:41:00,66.7,64.7,29.95,SW,220,0.0,0.0,93,0.00,SCT,,0.00,WeatherDisplay:10.37,2013-06-25 07:41:00,
2013-06-25 03:46:00,66.6,64.5,29.95,SW,220,0.0,0.0,93,0.00,SCT,,0.00,WeatherDisplay:10.37,2013-06-25 07:46:00,
2013-06-25 03:51:00,66.6,64.5,29.95,SW,220,0.0,0.0,93,0.00,SCT,,0.00,WeatherDisplay:10.37,2013-06-25 07:51:00,
2013-06-25 03:56:00,66.4,64.3,29.95,SW,220,0.0,0.0,93,0.00,SCT,,0.00,WeatherDisplay:10.37,2013-06-25 07:56:00,
2013-06-25 04:01:00,66.4,64.3,29.95,SW,220,0.0,0.0,93,0.00,SCT,,0.00,WeatherDisplay:10.37,2013-06-25 08:01:00,
2013-06-25 04:06:00,66.6,64.5,29.95,SW,220,0.0,0.0,93,0.00,SCT,,0.00,WeatherDisplay:10.37,2013-06-25 08:06:00,
2013-06-25 04:11:00,66.4,64.3,29.95,SW,220,0.0,0.0,93,0.00,SCT,,0.00,WeatherDisplay:10.37,2013-06-25 08:11:00,
2013-06-25 04:16:00,66.2,64.1,29.95,SW,220,0.0,0.0,93,0.00,SCT,,0.00,WeatherDisplay:10.37,2013-06-25 08:16:00,
2013-06-25 04:21:00,66.2,64.1,29.95,SW,220,0.0,0.0,93,0.00,SCT,,0.00,WeatherDisplay:10.37,2013-06-25 08:21:00,
2013-06-25 04:26:00,66.2,64.1,29.95,SW,220,0.0,0.0,93,0.00,SCT,,0.00,WeatherDisplay:10.37,2013-06-25 08:26:00,
2013-06-25 04:31:00,66.2,64.1,29.95,SW,220,0.0,0.0,93,0.00,SCT,,0.00,WeatherDisplay:10.37,2013-06-25 08:31:00,
2013-06-25 04:36:00,66.2,64.1,29.95,SW,220,0.0,0.0,93,0.00,SCT,,0.00,WeatherDisplay:10.37,2013-06-25 08:36:00,
2013-06-25 04:41:00,66.0,63.9,29.95,SW,220,0.0,0.0,93,0.00,SCT,,0.00,WeatherDisplay:10.37,2013-06-25 08:41:00,
2013-06-25 04:46:00,66.2,64.1,29.95,SW,220,0.0,0.0,93,0.00,SCT,,0.00,WeatherDisplay:10.37,2013-06-25 08:46:00,
2013-06-25 04:51:00,66.0,63.9,29.95,SW,220,0.0,0.0,93,0.00,SCT,,0.00,WeatherDisplay:10.37,2013-06-25 08:51:00,
2013-06-25 04:56:00,66.2,64.1,29.95,SW,220,0.0,0.0,93,0.00,SCT,,0.00,WeatherDisplay:10.37,2013-06-25 08:56:00,
2013-06-25 05:01:00,66.2,64.1,29.95,SW,220,0.0,0.0,93,0.00,SCT,,0.00,WeatherDisplay:10.37,2013-06-25 09:01:00,
2013-06-25 05:06:00,66.0,63.9,29.95,SW,220,0.0,0.0,93,0.00,SCT,,0.00,WeatherDisplay:10.37,2013-06-25 09:06:00,
2013-06-25 05:11:00,65.8,63.8,29.95,SW,220,0.0,0.0,93,0.00,SCT,,0.00,WeatherDisplay:10.37,2013-06-25 09:11:00,
2013-06-25 05:16:00,65.8,64.7,29.95,SW,220,0.0,0.0,96,0.00,SCT,,0.00,WeatherDisplay:10.37,2013-06-25 09:16:00,
2013-06-25 05:21:00,65.7,64.5,29.95,SW,220,0.0,0.0,96,0.00,SCT,,0.00,WeatherDisplay:10.37,2013-06-25 09:21:00,
2013-06-25 05:26:00,65.7,64.5,29.95,SW,220,0.0,0.0,96,0.00,SCT,,0.00,WeatherDisplay:10.37,2013-06-25 09:26:00,
2013-06-25 05:31:00,65.7,64.5,29.95,SW,220,0.0,0.0,96,0.00,SCT,,0.00,WeatherDisplay:10.37,2013-06-25 09:31:00,
2013-06-25 05:36:00,65.7,64.5,29.95,SW,220,0.0,0.0,96,0.00,SCT,,0.00,WeatherDisplay:10.37,2013-06-25 09:36:00,
2013-06-25 05:41:00,65.7,64.5,29.95,SW,220,0.0,0.0,96,0.00,SCT,,0.00,WeatherDisplay:10.37,2013-06-25 09:41:00,
2013-06-25 05:46:00,65.7,64.5,29.95,SW,220,0.0,0.0,96,0.00,SCT,,0.00,WeatherDisplay:10.37,2013-06-25 09:46:00,
2013-06-25 05:51:00,65.5,64.3,29.95,SW,220,0.0,0.0,96,0.00,SCT,,0.00,WeatherDisplay:10.37,2013-06-25 09:51:00,
2013-06-25 05:56:00,65.7,64.5,29.95,SW,220,0.0,0.0,96,0.00,SCT,,0.00,WeatherDisplay:10.37,2013-06-25 09:56:00,
2013-06-25 06:01:00,65.7,64.5,29.95,SW,220,0.0,0.0,96,0.00,SCT,,0.00,WeatherDisplay:10.37,2013-06-25 10:01:00,
2013-06-25 06:06:00,65.7,64.5,29.95,SW,220,0.0,0.0,96,0.00,SCT,,0.00,WeatherDisplay:10.37,2013-06-25 10:06:00,
2013-06-25 06:11:00,65.7,64.5,29.95,SW,220,0.0,0.0,96,0.00,SCT,,0.00,WeatherDisplay:10.37,2013-06-25 10:11:00,
2013-06-25 06:16:00,65.8,63.8,29.95,SW,220,0.0,0.0,93,0.00,BKN,,0.00,WeatherDisplay:10.37,2013-06-25 10:16:00,
2013-06-25 06:21:00,65.8,63.8,29.95,SW,220,0.0,0.0,93,0.00,BKN,,0.00,WeatherDisplay:10.37,2013-06-25 10:21:00,
2013-06-25 06:26:00,65.8,63.8,29.95,SW,220,0.0,0.0,93,0.00,BKN,,0.00,WeatherDisplay:10.37,2013-06-25 10:26:00,
2013-06-25 06:31:00,65.8,63.8,29.95,SW,220,0.0,0.0,93,0.00,BKN,,0.00,WeatherDisplay:10.37,2013-06-25 10:31:00,
2013-06-25 06:36:00,66.0,63.9,29.95,SW,220,0.0,0.0,93,0.00,BKN,,0.00,WeatherDisplay:10.37,2013-06-25 10:36:00,
2013-06-25 06:41:00,66.2,64.1,29.95,SW,220,0.0,0.0,93,0.00,BKN,,0.00,WeatherDisplay:10.37,2013-06-25 10:41:00,
2013-06-25 06:46:00,66.2,64.1,29.95,SW,220,0.0,0.0,93,0.00,BKN,,0.00,WeatherDisplay:10.37,2013-06-25 10:46:00,
2013-06-25 06:51:00,66.2,64.1,29.95,SW,220,0.0,0.0,93,0.00,BKN,,0.00,WeatherDisplay:10.37,2013-06-25 10:51:00,
2013-06-25 06:56:00,66.4,64.3,29.95,SW,220,0.0,0.0,93,0.00,BKN,,0.00,WeatherDisplay:10.37,2013-06-25 10:56:00,
2013-06-25 07:01:00,66.4,63.0,29.95,SW,220,0.0,0.0,89,0.00,BKN,,0.00,WeatherDisplay:10.37,2013-06-25 11:01:00,
2013-06-25 07:06:00,66.4,63.0,29.95,SW,220,0.0,0.0,89,0.00,BKN,,0.00,WeatherDisplay:10.37,2013-06-25 11:06:00,
2013-06-25 07:11:00,66.6,63.2,29.95,SW,220,0.0,0.0,89,0.00,BKN,,0.00,WeatherDisplay:10.37,2013-06-25 11:11:00,
2013-06-25 07:16:00,66.7,63.4,29.95,SW,220,0.0,0.0,89,0.00,BKN,,0.00,WeatherDisplay:10.37,2013-06-25 11:16:00,
2013-06-25 07:21:00,66.9,63.6,29.95,SW,220,0.0,0.0,89,0.00,BKN,,0.00,WeatherDisplay:10.37,2013-06-25 11:21:00,
2013-06-25 07:26:00,66.9,63.6,29.95,SW,220,0.0,0.0,89,0.00,BKN,,0.00,WeatherDisplay:10.37,2013-06-25 11:26:00,
2013-06-25 07:31:00,67.1,63.7,29.95,SW,220,0.0,0.0,89,0.00,BKN,,0.00,WeatherDisplay:10.37,2013-06-25 11:31:00,
2013-06-25 07:36:00,67.3,63.9,29.95,SW,220,0.0,0.0,89,0.00,BKN,,0.00,WeatherDisplay:10.37,2013-06-25 11:36:00,
2013-06-25 07:37:00,67.3,63.9,29.95,SW,220,0.0,0.0,89,0.00,BKN,,0.00,WeatherDisplay:10.37,2013-06-25 11:37:00,
2013-06-25 07:42:00,67.5,64.1,29.95,SW,220,0.0,0.0,89,0.00,BKN,,0.00,WeatherDisplay:10.37,2013-06-25 11:42:00,
2013-06-25 07:47:00,67.6,64.3,29.95,SW,220,0.0,0.0,89,0.00,BKN,,0.00,WeatherDisplay:10.37,2013-06-25 11:47:00,
2013-06-25 07:52:00,67.8,64.5,29.95,SW,220,0.0,0.0,89,0.00,BKN,,0.00,WeatherDisplay:10.37,2013-06-25 11:52:00,
2013-06-25 07:57:00,68.0,64.6,29.95,SW,220,0.0,0.0,89,0.00,BKN,,0.00,WeatherDisplay:10.37,2013-06-25 11:57:00,
2013-06-25 08:02:00,68.2,64.2,29.92,South,170,4.6,4.6,87,0.00,BKN,,0.00,WeatherDisplay:10.37,2013-06-25 12:02:00,
2013-06-25 08:07:00,68.4,64.3,29.92,South,170,4.6,4.6,87,0.00,BKN,,0.00,WeatherDisplay:10.37,2013-06-25 12:07:00,
2013-06-25 08:12:00,68.5,64.5,29.92,South,170,4.6,4.6,87,0.00,BKN,,0.00,WeatherDisplay:10.37,2013-06-25 12:12:00,
2013-06-25 08:17:00,68.7,64.7,29.95,South,170,4.6,4.6,87,0.00,BKN,,0.00,WeatherDisplay:10.37,2013-06-25 12:17:00,
2013-06-25 08:22:00,68.7,64.7,29.95,South,170,4.6,4.6,87,0.00,BKN,,0.00,WeatherDisplay:10.37,2013-06-25 12:22:00,
2013-06-25 08:27:00,68.9,64.9,29.95,South,170,4.6,4.6,87,0.00,BKN,,0.00,WeatherDisplay:10.37,2013-06-25 12:27:00,
2013-06-25 08:32:00,69.1,65.0,29.95,South,170,4.6,4.6,87,0.00,BKN,,0.00,WeatherDisplay:10.37,2013-06-25 12:32:00,
2013-06-25 08:37:00,69.3,65.2,29.95,South,170,4.6,4.6,87,0.00,BKN,,0.00,WeatherDisplay:10.37,2013-06-25 12:37:00,
2013-06-25 08:42:00,69.4,65.4,29.95,South,170,4.6,4.6,87,0.00,BKN,,0.00,WeatherDisplay:10.37,2013-06-25 12:42:00,
2013-06-25 08:47:00,69.6,65.6,29.95,South,170,4.6,4.6,87,0.00,BKN,,0.00,WeatherDisplay:10.37,2013-06-25 12:47:00,
2013-06-25 08:52:00,69.8,65.8,29.95,South,170,4.6,4.6,87,0.00,BKN,,0.00,WeatherDisplay:10.37,2013-06-25 12:52:00,
2013-06-25 08:57:00,70.0,65.9,29.95,South,170,4.6,4.6,87,0.00,BKN,,0.00,WeatherDisplay:10.37,2013-06-25 12:57:00,
2013-06-25 09:02:00,70.0,63.9,29.95,SSE,160,5.8,5.8,81,0.00,BKN,,0.00,WeatherDisplay:10.37,2013-06-25 13:02:00,
2013-06-25 09:07:00,70.3,64.2,29.95,SSE,160,5.8,5.8,81,0.00,BKN,,0.00,WeatherDisplay:10.37,2013-06-25 13:07:00,
2013-06-25 09:12:00,70.5,64.4,29.95,SSE,160,5.8,5.8,81,0.00,BKN,,0.00,WeatherDisplay:10.37,2013-06-25 13:12:00,
2013-06-25 09:17:00,70.9,64.8,29.92,SSE,160,5.8,5.8,81,0.00,BKN,,0.00,WeatherDisplay:10.37,2013-06-25 13:17:00,
2013-06-25 09:22:00,71.1,64.9,29.92,SSE,160,5.8,5.8,81,0.00,BKN,,0.00,WeatherDisplay:10.37,2013-06-25 13:22:00,
2013-06-25 09:27:00,71.4,65.3,29.92,SSE,160,5.8,5.8,81,0.00,BKN,,0.00,WeatherDisplay:10.37,2013-06-25 13:27:00,
2013-06-25 09:32:00,71.6,65.5,29.92,SSE,160,5.8,5.8,81,0.00,BKN,,0.00,WeatherDisplay:10.37,2013-06-25 13:32:00,
2013-06-25 09:37:00,71.8,65.6,29.92,SSE,160,5.8,5.8,81,0.00,BKN,,0.00,WeatherDisplay:10.37,2013-06-25 13:37:00,
2013-06-25 09:42:00,72.0,65.8,29.92,SSE,160,5.8,5.8,81,0.00,BKN,,0.00,WeatherDisplay:10.37,2013-06-25 13:42:00,
2013-06-25 09:47:00,72.1,66.0,29.92,SSE,160,5.8,5.8,81,0.00,BKN,,0.00,WeatherDisplay:10.37,2013-06-25 13:47:00,
2013-06-25 09:52:00,72.3,66.2,29.92,SSE,160,5.8,5.8,81,0.00,BKN,,0.00,WeatherDisplay:10.37,2013-06-25 13:52:00,
2013-06-25 09:57:00,72.7,66.5,29.92,SSE,160,5.8,5.8,81,0.00,BKN,,0.00,WeatherDisplay:10.37,2013-06-25 13:57:00,
2013-06-25 10:02:00,72.7,63.5,29.92,SSE,160,4.6,4.6,73,0.00,BKN,,0.00,WeatherDisplay:10.37,2013-06-25 14:02:00,
2013-06-25 10:07:00,72.9,63.7,29.92,SSE,160,4.6,4.6,73,0.00,BKN,,0.00,WeatherDisplay:10.37,2013-06-25 14:07:00,
2013-06-25 10:12:00,73.2,64.0,29.92,SSE,160,4.6,4.6,73,0.00,BKN,,0.00,WeatherDisplay:10.37,2013-06-25 14:12:00,
2013-06-25 10:17:00,73.4,64.2,29.92,SSE,160,4.6,4.6,73,0.00,BKN,,0.00,WeatherDisplay:10.37,2013-06-25 14:17:00,
2013-06-25 10:22:00,73.6,64.4,29.92,SSE,160,4.6,4.6,73,0.00,BKN,,0.00,WeatherDisplay:10.37,2013-06-25 14:22:00,
2013-06-25 10:27:00,73.9,64.7,29.92,SSE,160,4.6,4.6,73,0.00,BKN,,0.00,WeatherDisplay:10.37,2013-06-25 14:27:00,
2013-06-25 10:32:00,74.1,64.9,29.92,SSE,160,4.6,4.6,73,0.00,BKN,,0.00,WeatherDisplay:10.37,2013-06-25 14:32:00,
2013-06-25 10:37:00,74.3,65.1,29.92,SSE,160,4.6,4.6,73,0.00,BKN,,0.00,WeatherDisplay:10.37,2013-06-25 14:37:00,
2013-06-25 10:42:00,74.8,65.6,29.92,SSE,160,4.6,4.6,73,0.00,BKN,,0.00,WeatherDisplay:10.37,2013-06-25 14:42:00,
2013-06-25 10:47:00,74.8,65.6,29.92,SSE,160,4.6,4.6,73,0.00,BKN,,0.00,WeatherDisplay:10.37,2013-06-25 14:47:00,
2013-06-25 10:53:00,75.0,65.8,29.92,SSE,160,4.6,4.6,73,0.00,BKN,,0.00,WeatherDisplay:10.37,2013-06-25 14:53:00,
2013-06-25 10:58:00,75.4,66.1,29.92,SSE,160,4.6,4.6,73,0.00,BKN,,0.00,WeatherDisplay:10.37,2013-06-25 14:58:00,
2013-06-25 11:03:00,75.6,63.4,29.92,South,180,3.5,3.5,66,0.00,SCT,,0.00,WeatherDisplay:10.37,2013-06-25 15:03:00,
2013-06-25 11:08:00,75.7,63.6,29.92,South,180,3.5,3.5,66,0.00,SCT,,0.00,WeatherDisplay:10.37,2013-06-25 15:08:00,
2013-06-25 11:13:00,75.9,63.7,29.92,South,180,3.5,3.5,66,0.00,SCT,,0.00,WeatherDisplay:10.37,2013-06-25 15:13:00,
2013-06-25 11:18:00,76.3,64.1,29.92,South,180,3.5,3.5,66,0.00,SCT,,0.00,WeatherDisplay:10.37,2013-06-25 15:18:00,
2013-06-25 11:23:00,76.5,64.3,29.92,South,180,3.5,3.5,66,0.00,SCT,,0.00,WeatherDisplay:10.37,2013-06-25 15:23:00,
2013-06-25 11:28:00,76.6,64.4,29.92,South,180,3.5,3.5,66,0.00,SCT,,0.00,WeatherDisplay:10.37,2013-06-25 15:28:00,
2013-06-25 11:33:00,76.8,64.6,29.92,South,180,3.5,3.5,66,0.00,SCT,,0.00,WeatherDisplay:10.37,2013-06-25 15:33:00,
2013-06-25 11:38:00,77.0,64.8,29.92,South,180,3.5,3.5,66,0.00,SCT,,0.00,WeatherDisplay:10.37,2013-06-25 15:38:00,
2013-06-25 11:43:00,77.2,64.9,29.92,South,180,3.5,3.5,66,0.00,SCT,,0.00,WeatherDisplay:10.37,2013-06-25 15:43:00,
2013-06-25 11:48:00,77.5,65.3,29.89,South,180,3.5,3.5,66,0.00,SCT,,0.00,WeatherDisplay:10.37,2013-06-25 15:48:00,
2013-06-25 11:53:00,77.7,65.5,29.89,South,180,3.5,3.5,66,0.00,SCT,,0.00,WeatherDisplay:10.37,2013-06-25 15:53:00,
2013-06-25 11:58:00,77.9,65.6,29.89,South,180,3.5,3.5,66,0.00,SCT,,0.00,WeatherDisplay:10.37,2013-06-25 15:58:00,
2013-06-25 12:03:00,78.1,61.6,29.89,SSE,150,8.1,8.1,57,0.00,SCT,,0.00,WeatherDisplay:10.37,2013-06-25 16:03:00,
2013-06-25 12:08:00,78.4,61.9,29.89,SSE,150,8.1,8.1,57,0.00,SCT,,0.00,WeatherDisplay:10.37,2013-06-25 16:08:00,
2013-06-25 12:13:00,78.6,62.1,29.89,SSE,150,8.1,8.1,57,0.00,SCT,,0.00,WeatherDisplay:10.37,2013-06-25 16:13:00,
2013-06-25 12:18:00,78.8,62.3,29.89,SSE,150,8.1,8.1,57,0.00,SCT,,0.00,WeatherDisplay:10.37,2013-06-25 16:18:00,
2013-06-25 12:23:00,79.2,62.6,29.89,SSE,150,8.1,8.1,57,0.00,SCT,,0.00,WeatherDisplay:10.37,2013-06-25 16:23:00,
2013-06-25 12:28:00,79.3,62.8,29.89,SSE,150,8.1,8.1,57,0.00,SCT,,0.00,WeatherDisplay:10.37,2013-06-25 16:28:00,
2013-06-25 12:33:00,79.3,62.8,29.86,SSE,150,8.1,8.1,57,0.00,SCT,,0.00,WeatherDisplay:10.37,2013-06-25 16:33:00,
2013-06-25 12:38:00,79.7,63.1,29.86,SSE,150,8.1,8.1,57,0.00,SCT,,0.00,WeatherDisplay:10.37,2013-06-25 16:38:00,
2013-06-25 12:43:00,80.1,63.5,29.86,SSE,150,8.1,8.1,57,0.00,SCT,,0.00,WeatherDisplay:10.37,2013-06-25 16:43:00,
2013-06-25 12:48:00,80.2,63.6,29.86,SSE,150,8.1,8.1,57,0.00,SCT,,0.00,WeatherDisplay:10.37,2013-06-25 16:48:00,
2013-06-25 12:53:00,80.4,63.8,29.86,SSE,150,8.1,8.1,57,0.00,SCT,,0.00,WeatherDisplay:10.37,2013-06-25 16:53:00,
2013-06-25 12:58:00,80.6,64.0,29.86,SSE,150,8.1,8.1,57,0.00,SCT,,0.00,WeatherDisplay:10.37,2013-06-25 16:58:00,
2013-06-25 13:03:00,80.2,63.6,29.86,SSE,150,8.1,8.1,57,0.00,SCT,,0.00,WeatherDisplay:10.37,2013-06-25 17:03:00,
2013-06-25 13:08:00,80.4,63.8,29.86,SSE,150,8.1,8.1,57,0.00,SCT,,0.00,WeatherDisplay:10.37,2013-06-25 17:08:00,
2013-06-25 13:13:00,80.6,64.0,29.86,SSE,150,8.1,8.1,57,0.00,SCT,,0.00,WeatherDisplay:10.37,2013-06-25 17:13:00,
2013-06-25 13:18:00,80.6,61.9,29.83,South,180,8.1,8.1,53,0.00,SCT,,0.00,WeatherDisplay:10.37,2013-06-25 17:18:00,
2013-06-25 13:23:00,81.0,62.2,29.83,South,180,8.1,8.1,53,0.00,SCT,,0.00,WeatherDisplay:10.37,2013-06-25 17:23:00,
2013-06-25 13:28:00,80.8,62.1,29.83,South,180,8.1,8.1,53,0.00,SCT,,0.00,WeatherDisplay:10.37,2013-06-25 17:28:00,
2013-06-25 13:33:00,81.0,62.2,29.83,South,180,8.1,8.1,53,0.00,SCT,,0.00,WeatherDisplay:10.37,2013-06-25 17:33:00,
2013-06-25 13:38:00,81.0,62.2,29.83,South,180,8.1,8.1,53,0.00,SCT,,0.00,WeatherDisplay:10.37,2013-06-25 17:38:00,
2013-06-25 13:43:00,81.1,62.4,29.83,South,180,8.1,8.1,53,0.00,SCT,,0.00,WeatherDisplay:10.37,2013-06-25 17:43:00,
2013-06-25 13:48:00,81.1,62.4,29.83,South,180,8.1,8.1,53,0.00,SCT,,0.00,WeatherDisplay:10.37,2013-06-25 17:48:00,
2013-06-25 13:53:00,81.0,62.2,29.83,South,180,8.1,8.1,53,0.00,SCT,,0.00,WeatherDisplay:10.37,2013-06-25 17:53:00,
2013-06-25 13:58:00,81.1,62.4,29.83,South,180,8.1,8.1,53,0.00,SCT,,0.00,WeatherDisplay:10.37,2013-06-25 17:58:00,
2013-06-25 14:03:00,81.1,62.4,29.83,South,180,8.1,8.1,53,0.00,BKN,,0.00,WeatherDisplay:10.37,2013-06-25 18:03:00,
2013-06-25 14:08:00,81.3,62.6,29.83,South,180,8.1,8.1,53,0.00,BKN,,0.00,WeatherDisplay:10.37,2013-06-25 18:08:00,
2013-06-25 14:13:00,81.3,62.6,29.83,South,180,8.1,8.1,53,0.00,BKN,,0.00,WeatherDisplay:10.37,2013-06-25 18:13:00,
2013-06-25 14:18:00,81.7,62.9,29.80,South,180,8.1,8.1,53,0.00,BKN,,0.00,WeatherDisplay:10.37,2013-06-25 18:18:00,
2013-06-25 14:23:00,81.9,63.1,29.80,South,180,8.1,8.1,53,0.00,BKN,,0.00,WeatherDisplay:10.37,2013-06-25 18:23:00,
2013-06-25 14:28:00,82.0,63.2,29.80,South,180,8.1,8.1,53,0.00,BKN,,0.00,WeatherDisplay:10.37,2013-06-25 18:28:00,
2013-06-25 14:33:00,82.0,63.2,29.80,South,180,8.1,8.1,53,0.00,BKN,,0.00,WeatherDisplay:10.37,2013-06-25 18:33:00,
2013-06-25 14:38:00,81.7,62.9,29.80,South,180,8.1,8.1,53,0.00,BKN,,0.00,WeatherDisplay:10.37,2013-06-25 18:38:00,
2013-06-25 14:43:00,81.7,62.9,29.80,South,180,8.1,8.1,53,0.00,BKN,,0.00,WeatherDisplay:10.37,2013-06-25 18:43:00,
2013-06-25 14:48:00,82.0,63.2,29.80,South,180,8.1,8.1,53,0.00,BKN,,0.00,WeatherDisplay:10.37,2013-06-25 18:48:00,
2013-06-25 14:53:00,82.4,63.5,29.80,South,180,8.1,8.1,53,0.00,BKN,,0.00,WeatherDisplay:10.37,2013-06-25 18:53:00,
2013-06-25 14:58:00,82.8,63.9,29.80,South,180,8.1,8.1,53,0.00,BKN,,0.00,WeatherDisplay:10.37,2013-06-25 18:58:00,
2013-06-25 15:03:00,82.8,61.6,29.77,South,180,11.5,11.5,49,0.00,BKN,,0.00,WeatherDisplay:10.37,2013-06-25 19:03:00,
2013-06-25 15:08:00,82.8,61.6,29.77,South,180,11.5,11.5,49,0.00,BKN,,0.00,WeatherDisplay:10.37,2013-06-25 19:08:00,
2013-06-25 15:13:00,83.1,62.0,29.77,South,180,11.5,11.5,49,0.00,BKN,,0.00,WeatherDisplay:10.37,2013-06-25 19:13:00,
2013-06-25 15:18:00,82.9,61.8,29.77,South,180,11.5,11.5,49,0.00,BKN,,0.00,WeatherDisplay:10.37,2013-06-25 19:18:00,
2013-06-25 15:23:00,82.9,61.8,29.77,South,180,11.5,11.5,49,0.00,BKN,,0.00,WeatherDisplay:10.37,2013-06-25 19:23:00,
2013-06-25 15:28:00,82.6,61.5,29.77,South,180,11.5,11.5,49,0.00,BKN,,0.00,WeatherDisplay:10.37,2013-06-25 19:28:00,
2013-06-25 15:33:00,82.2,61.2,29.77,South,180,11.5,11.5,49,0.00,BKN,,0.00,WeatherDisplay:10.37,2013-06-25 19:33:00,
2013-06-25 15:38:00,80.8,59.8,29.77,South,180,11.5,11.5,49,0.00,BKN,,0.04,WeatherDisplay:10.37,2013-06-25 19:38:00,
2013-06-25 15:43:00,78.6,57.9,29.77,South,180,11.5,11.5,49,0.08,RA,,0.08,WeatherDisplay:10.37,2013-06-25 19:43:00,
2013-06-25 15:48:00,77.4,56.7,29.77,South,180,11.5,11.5,49,0.08,RA,,0.08,WeatherDisplay:10.37,2013-06-25 19:48:00,
2013-06-25 15:53:00,76.8,56.2,29.77,South,180,11.5,11.5,49,0.08,BKN,,0.08,WeatherDisplay:10.37,2013-06-25 19:53:00,
2013-06-25 15:58:00,76.6,56.0,29.77,South,180,11.5,11.5,49,0.08,BKN,,0.08,WeatherDisplay:10.37,2013-06-25 19:58:00,
2013-06-25 16:03:00,76.5,67.2,29.77,SW,220,16.1,29.9,73,0.08,BKN,,0.08,WeatherDisplay:10.37,2013-06-25 20:03:00,
2013-06-25 16:08:00,76.1,66.8,29.77,SW,220,16.1,29.9,73,0.08,BKN,,0.08,WeatherDisplay:10.37,2013-06-25 20:08:00,
2013-06-25 16:13:00,76.1,66.8,29.77,SW,220,16.1,29.9,73,0.08,BKN,,0.08,WeatherDisplay:10.37,2013-06-25 20:13:00,
2013-06-25 16:18:00,75.9,66.6,29.77,SW,220,16.1,29.9,73,0.08,BKN,,0.08,WeatherDisplay:10.37,2013-06-25 20:18:00,
2013-06-25 16:23:00,75.7,66.5,29.77,SW,220,16.1,29.9,73,0.08,BKN,,0.08,WeatherDisplay:10.37,2013-06-25 20:23:00,
2013-06-25 16:28:00,75.9,66.6,29.77,SW,220,16.1,29.9,73,0.08,BKN,,0.08,WeatherDisplay:10.37,2013-06-25 20:28:00,
2013-06-25 16:33:00,76.1,70.6,29.77,SW,220,0.0,0.0,83,0.08,BKN,,0.08,WeatherDisplay:10.37,2013-06-25 20:33:00,
2013-06-25 16:38:00,76.3,70.7,29.77,SW,220,0.0,0.0,83,0.08,BKN,,0.08,WeatherDisplay:10.37,2013-06-25 20:38:00,
2013-06-25 16:43:00,76.1,70.6,29.77,SW,220,0.0,0.0,83,0.00,BKN,,0.08,WeatherDisplay:10.37,2013-06-25 20:43:00,
2013-06-25 16:48:00,76.1,70.6,29.77,SW,220,0.0,0.0,83,0.00,BKN,,0.08,WeatherDisplay:10.37,2013-06-25 20:48:00,
2013-06-25 16:53:00,75.7,70.2,29.77,SW,220,0.0,0.0,83,0.00,BKN,,0.08,WeatherDisplay:10.37,2013-06-25 20:53:00,
2013-06-25 16:58:00,75.2,69.7,29.77,SW,220,0.0,0.0,83,0.00,BKN,,0.08,WeatherDisplay:10.37,2013-06-25 20:58:00,
2013-06-25 17:03:00,74.5,68.3,29.80,North,350,11.5,11.5,81,0.00,OVC,,0.08,WeatherDisplay:10.37,2013-06-25 21:03:00,
2013-06-25 17:08:00,73.9,67.7,29.80,North,350,11.5,11.5,81,0.00,OVC,,0.08,WeatherDisplay:10.37,2013-06-25 21:08:00,
2013-06-25 17:13:00,73.0,66.9,29.80,North,350,11.5,11.5,81,0.04,RA,,0.12,WeatherDisplay:10.37,2013-06-25 21:13:00,
2013-06-25 17:18:00,72.3,68.6,29.80,NW,320,15.0,15.0,88,0.12,-RA,,0.20,WeatherDisplay:10.37,2013-06-25 21:18:00,
2013-06-25 17:23:00,72.5,68.7,29.80,NW,320,15.0,15.0,88,0.12,-RA,,0.20,WeatherDisplay:10.37,2013-06-25 21:23:00,
2013-06-25 17:28:00,72.7,68.9,29.80,NW,320,15.0,15.0,88,0.12,-RA,,0.20,WeatherDisplay:10.37,2013-06-25 21:28:00,
2013-06-25 17:33:00,72.9,69.1,29.80,NW,320,15.0,15.0,88,0.12,-RA,,0.20,WeatherDisplay:10.37,2013-06-25 21:33:00,
2013-06-25 17:38:00,73.0,69.3,29.80,NW,320,15.0,15.0,88,0.12,-RA,,0.20,WeatherDisplay:10.37,2013-06-25 21:38:00,
2013-06-25 17:43:00,73.2,69.5,29.80,NW,320,15.0,15.0,88,0.12,-RA,,0.20,WeatherDisplay:10.37,2013-06-25 21:43:00,
2013-06-25 17:48:00,73.4,69.6,29.77,NW,320,15.0,15.0,88,0.12,-RA,,0.20,WeatherDisplay:10.37,2013-06-25 21:48:00,
2013-06-25 17:53:00,73.6,69.8,29.77,NW,320,15.0,15.0,88,0.12,-RA,,0.20,WeatherDisplay:10.37,2013-06-25 21:53:00,
2013-06-25 17:58:00,73.6,69.8,29.77,NW,320,15.0,15.0,88,0.12,-RA,,0.20,WeatherDisplay:10.37,2013-06-25 21:58:00,
2013-06-25 18:03:00,73.8,68.6,29.80,West,260,5.8,5.8,84,0.12,BKN,,0.20,WeatherDisplay:10.37,2013-06-25 22:03:00,
2013-06-25 18:08:00,73.8,68.6,29.80,West,260,5.8,5.8,84,0.12,BKN,,0.20,WeatherDisplay:10.37,2013-06-25 22:08:00,
2013-06-25 18:13:00,73.8,68.6,29.80,West,260,5.8,5.8,84,0.08,BKN,,0.20,WeatherDisplay:10.37,2013-06-25 22:13:00,
2013-06-25 18:18:00,73.9,68.8,29.80,West,260,5.8,5.8,84,0.00,BKN,,0.20,WeatherDisplay:10.37,2013-06-25 22:18:00,
2013-06-25 18:23:00,73.9,68.8,29.80,West,260,5.8,5.8,84,0.00,BKN,,0.20,WeatherDisplay:10.37,2013-06-25 22:23:00,
2013-06-25 18:28:00,74.1,69.0,29.80,West,260,5.8,5.8,84,0.00,BKN,,0.20,WeatherDisplay:10.37,2013-06-25 22:28:00,
2013-06-25 18:33:00,74.1,69.0,29.80,West,260,5.8,5.8,84,0.00,BKN,,0.20,WeatherDisplay:10.37,2013-06-25 22:33:00,
2013-06-25 18:38:00,74.1,69.0,29.80,West,260,5.8,5.8,84,0.00,BKN,,0.20,WeatherDisplay:10.37,2013-06-25 22:38:00,
2013-06-25 18:43:00,74.1,69.0,29.80,West,260,5.8,5.8,84,0.00,BKN,,0.20,WeatherDisplay:10.37,2013-06-25 22:43:00,
2013-06-25 18:48:00,73.9,68.8,29.80,West,260,5.8,5.8,84,0.00,BKN,,0.20,WeatherDisplay:10.37,2013-06-25 22:48:00,
2013-06-25 18:53:00,73.8,68.6,29.80,West,260,5.8,5.8,84,0.00,BKN,,0.20,WeatherDisplay:10.37,2013-06-25 22:53:00,
2013-06-25 18:58:00,73.9,68.8,29.80,West,260,5.8,5.8,84,0.00,BKN,,0.20,WeatherDisplay:10.37,2013-06-25 22:58:00,
2013-06-25 19:03:00,73.8,68.6,29.80,West,260,5.8,5.8,84,0.00,BKN,,0.20,WeatherDisplay:10.37,2013-06-25 23:03:00,
2013-06-25 19:08:00,73.6,68.4,29.80,West,260,5.8,5.8,84,0.00,BKN,,0.20,WeatherDisplay:10.37,2013-06-25 23:08:00,
2013-06-25 19:13:00,73.6,68.4,29.80,West,260,5.8,5.8,84,0.00,BKN,,0.20,WeatherDisplay:10.37,2013-06-25 23:13:00,
2013-06-25 19:18:00,73.6,66.3,29.80,WSW,250,5.8,5.8,78,0.00,BKN,,0.20,WeatherDisplay:10.37,2013-06-25 23:18:00,
2013-06-25 19:23:00,73.6,66.3,29.80,WSW,250,5.8,5.8,78,0.00,BKN,,0.20,WeatherDisplay:10.37,2013-06-25 23:23:00,
2013-06-25 19:28:00,73.6,66.3,29.80,WSW,250,5.8,5.8,78,0.00,BKN,,0.20,WeatherDisplay:10.37,2013-06-25 23:28:00,
2013-06-25 19:33:00,73.6,66.3,29.80,WSW,250,5.8,5.8,78,0.00,BKN,,0.20,WeatherDisplay:10.37,2013-06-25 23:33:00,
2013-06-25 19:38:00,73.4,66.1,29.80,WSW,250,5.8,5.8,78,0.00,BKN,,0.20,WeatherDisplay:10.37,2013-06-25 23:38:00,
2013-06-25 19:43:00,73.6,66.3,29.80,WSW,250,5.8,5.8,78,0.00,BKN,,0.20,WeatherDisplay:10.37,2013-06-25 23:43:00,
2013-06-25 19:48:00,73.6,66.3,29.80,WSW,250,5.8,5.8,78,0.00,BKN,,0.20,WeatherDisplay:10.37,2013-06-25 23:48:00,
2013-06-25 19:53:00,73.4,66.1,29.80,WSW,250,5.8,5.8,78,0.00,BKN,,0.20,WeatherDisplay:10.37,2013-06-25 23:53:00,
2013-06-25 19:58:00,73.4,66.1,29.80,WSW,250,5.8,5.8,78,0.00,BKN,,0.20,WeatherDisplay:10.37,2013-06-25 23:58:00,
2013-06-25 20:03:00,73.6,67.4,29.80,WSW,240,3.5,3.5,81,0.00,BKN,,0.20,WeatherDisplay:10.37,2013-06-26 00:03:00,
2013-06-25 20:08:00,73.6,67.4,29.80,WSW,240,3.5,3.5,81,0.00,BKN,,0.20,WeatherDisplay:10.37,2013-06-26 00:08:00,
2013-06-25 20:13:00,73.4,67.2,29.80,WSW,240,3.5,3.5,81,0.00,BKN,,0.20,WeatherDisplay:10.37,2013-06-26 00:13:00,
2013-06-25 20:18:00,73.4,67.2,29.80,WSW,240,3.5,3.5,81,0.00,BKN,,0.20,WeatherDisplay:10.37,2013-06-26 00:18:00,
2013-06-25 20:24:00,73.4,67.2,29.80,WSW,240,3.5,3.5,81,0.00,BKN,,0.20,WeatherDisplay:10.37,2013-06-26 00:24:00,
2013-06-25 20:29:00,73.2,67.0,29.80,WSW,240,3.5,3.5,81,0.00,BKN,,0.20,WeatherDisplay:10.37,2013-06-26 00:29:00,
2013-06-25 20:34:00,73.2,67.0,29.80,WSW,240,3.5,3.5,81,0.00,BKN,,0.20,WeatherDisplay:10.37,2013-06-26 00:34:00,
2013-06-25 20:39:00,73.0,66.9,29.80,WSW,240,3.5,3.5,81,0.00,BKN,,0.20,WeatherDisplay:10.37,2013-06-26 00:39:00,
2013-06-25 20:44:00,73.0,66.9,29.80,WSW,240,3.5,3.5,81,0.00,BKN,,0.20,WeatherDisplay:10.37,2013-06-26 00:44:00,
2013-06-25 20:49:00,73.0,66.9,29.80,WSW,240,3.5,3.5,81,0.00,BKN,,0.20,WeatherDisplay:10.37,2013-06-26 00:49:00,
2013-06-25 20:54:00,72.9,66.7,29.80,WSW,240,3.5,3.5,81,0.00,BKN,,0.20,WeatherDisplay:10.37,2013-06-26 00:54:00,
2013-06-25 20:59:00,72.9,66.7,29.80,WSW,240,3.5,3.5,81,0.00,BKN,,0.20,WeatherDisplay:10.37,2013-06-26 00:59:00,
2013-06-25 21:04:00,72.9,66.7,29.80,WSW,240,3.5,3.5,81,0.00,BKN,,0.20,WeatherDisplay:10.37,2013-06-26 01:04:00,
2013-06-25 21:09:00,72.9,66.7,29.80,WSW,240,3.5,3.5,81,0.00,BKN,,0.20,WeatherDisplay:10.37,2013-06-26 01:09:00,
2013-06-25 21:14:00,72.7,66.5,29.80,WSW,240,3.5,3.5,81,0.00,BKN,,0.20,WeatherDisplay:10.37,2013-06-26 01:14:00,
2013-06-25 21:19:00,72.7,66.5,29.80,WSW,240,5.8,5.8,81,0.00,BKN,,0.20,WeatherDisplay:10.37,2013-06-26 01:19:00,
2013-06-25 21:24:00,72.7,66.5,29.80,WSW,240,5.8,5.8,81,0.00,BKN,,0.20,WeatherDisplay:10.37,2013-06-26 01:24:00,
2013-06-25 21:29:00,72.7,66.5,29.80,WSW,240,5.8,5.8,81,0.00,BKN,,0.20,WeatherDisplay:10.37,2013-06-26 01:29:00,
2013-06-25 21:34:00,72.5,66.3,29.80,WSW,240,5.8,5.8,81,0.00,BKN,,0.20,WeatherDisplay:10.37,2013-06-26 01:34:00,
2013-06-25 21:39:00,72.5,66.3,29.80,WSW,240,5.8,5.8,81,0.00,BKN,,0.20,WeatherDisplay:10.37,2013-06-26 01:39:00,
2013-06-25 21:44:00,72.5,66.3,29.80,WSW,240,5.8,5.8,81,0.00,BKN,,0.20,WeatherDisplay:10.37,2013-06-26 01:44:00,
2013-06-25 21:49:00,72.3,66.2,29.80,WSW,240,5.8,5.8,81,0.00,BKN,,0.20,WeatherDisplay:10.37,2013-06-26 01:49:00,
2013-06-25 21:54:00,72.3,66.2,29.80,WSW,240,5.8,5.8,81,0.00,BKN,,0.20,WeatherDisplay:10.37,2013-06-26 01:54:00,
2013-06-25 21:59:00,72.3,66.2,29.80,WSW,240,5.8,5.8,81,0.00,BKN,,0.20,WeatherDisplay:10.37,2013-06-26 01:59:00,
2013-06-25 22:04:00,72.1,66.0,29.80,WSW,240,5.8,5.8,81,0.00,BKN,,0.20,WeatherDisplay:10.37,2013-06-26 02:04:00,
2013-06-25 22:09:00,72.1,66.0,29.80,WSW,240,5.8,5.8,81,0.00,BKN,,0.20,WeatherDisplay:10.37,2013-06-26 02:09:00,
2013-06-25 22:10:00,72.1,66.0,29.80,WSW,240,5.8,5.8,81,0.00,BKN,,0.20,WeatherDisplay:10.37,2013-06-26 02:10:00,
2013-06-25 22:15:00,72.0,65.8,29.80,WSW,240,5.8,5.8,81,0.00,BKN,,0.20,WeatherDisplay:10.37,2013-06-26 02:15:00,
2013-06-25 22:20:00,72.0,65.8,29.80,WNW,290,3.5,3.5,81,0.00,SCT,,0.20,WeatherDisplay:10.37,2013-06-26 02:20:00,
2013-06-25 22:25:00,72.0,65.8,29.80,WNW,290,3.5,3.5,81,0.00,SCT,,0.20,WeatherDisplay:10.37,2013-06-26 02:25:00,
2013-06-25 22:30:00,72.0,65.8,29.80,WNW,290,3.5,3.5,81,0.00,SCT,,0.20,WeatherDisplay:10.37,2013-06-26 02:30:00,
2013-06-25 22:35:00,72.0,65.8,29.80,WNW,290,3.5,3.5,81,0.00,SCT,,0.20,WeatherDisplay:10.37,2013-06-26 02:35:00,
2013-06-25 22:40:00,71.8,65.6,29.80,WNW,290,3.5,3.5,81,0.00,SCT,,0.20,WeatherDisplay:10.37,2013-06-26 02:40:00,
2013-06-25 22:45:00,71.8,65.6,29.80,WNW,290,3.5,3.5,81,0.00,SCT,,0.20,WeatherDisplay:10.37,2013-06-26 02:45:00,
2013-06-25 22:50:00,71.8,65.6,29.80,WNW,290,3.5,3.5,81,0.00,SCT,,0.20,WeatherDisplay:10.37,2013-06-26 02:50:00,
2013-06-25 22:55:00,71.8,65.6,29.80,WNW,290,3.5,3.5,81,0.00,SCT,,0.20,WeatherDisplay:10.37,2013-06-26 02:55:00,
2013-06-25 23:00:00,71.8,65.6,29.80,WNW,290,3.5,3.5,81,0.00,SCT,,0.20,WeatherDisplay:10.37,2013-06-26 03:00:00,
2013-06-25 23:05:00,71.6,68.5,29.80,WNW,290,0.0,0.0,90,0.00,BKN,,0.20,WeatherDisplay:10.37,2013-06-26 03:05:00,
2013-06-25 23:10:00,71.6,68.5,29.80,WNW,290,0.0,0.0,90,0.00,BKN,,0.20,WeatherDisplay:10.37,2013-06-26 03:10:00,
2013-06-25 23:15:00,71.6,68.5,29.80,WNW,290,0.0,0.0,90,0.00,BKN,,0.20,WeatherDisplay:10.37,2013-06-26 03:15:00,
2013-06-25 23:20:00,71.6,68.5,29.80,WNW,290,0.0,0.0,90,0.00,BKN,,0.20,WeatherDisplay:10.37,2013-06-26 03:20:00,
2013-06-25 23:25:00,71.6,68.5,29.80,WNW,290,0.0,0.0,90,0.00,BKN,,0.20,WeatherDisplay:10.37,2013-06-26 03:25:00,
2013-06-25 23:30:00,71.6,68.5,29.80,WNW,290,0.0,0.0,90,0.00,BKN,,0.20,WeatherDisplay:10.37,2013-06-26 03:30:00,
2013-06-25 23:35:00,71.4,68.3,29.80,WNW,290,0.0,0.0,90,0.00,BKN,,0.20,WeatherDisplay:10.37,2013-06-26 03:35:00,
2013-06-25 23:40:00,71.4,68.3,29.80,WNW,290,0.0,0.0,90,0.00,BKN,,0.20,WeatherDisplay:10.37,2013-06-26 03:40:00,
2013-06-25 23:45:00,71.4,68.3,29.80,WNW,290,0.0,0.0,90,0.00,BKN,,0.20,WeatherDisplay:10.37,2013-06-26 03:45:00,
2013-06-25 23:50:00,71.6,68.5,29.80,WNW,290,0.0,0.0,90,0.00,BKN,,0.20,WeatherDisplay:10.37,2013-06-26 03:50:00,
2013-06-25 23:55:00,71.4,68.3,29.80,WNW,290,0.0,0.0,90,0.00,BKN,,0.20,WeatherDisplay:10.37,2013-06-26 03:55:00,